DW1458 Foley AL US current weather conditions

sailwx.info

Wind from 172 at 3 knots gusting 6

Air temperature 28.9° C
Dewpoint 25.7° C

Last reported at 2019-Jul-16 00:00 UTC.
Time now 2019-Jul-16 00:28 UTC

Location: N 30°24' W 087°40'.
View on Google Maps.

See reports from other nearby stations

  
Tides and Currents Weather Stations Pressure Air Temp Water Temp Dewpoint Dewpoint Depression Visibility Wind Speed Wind Dir Waves Ship Positions
date/time (UTC)wind fromknots sea level pressurealtimeterstation pressurevisibilityair tempwater tempwave heightnotes
2019-Jul-16 00:00 172 3 gusting 6 28.9
2019-Jul-15 23:47 206 0 gusting 6 28.9
2019-Jul-15 23:30 128 1 gusting 6 28.9
2019-Jul-15 23:17 171 2 gusting 7 29.4
2019-Jul-15 23:00 155 2 gusting 6 29.4
2019-Jul-15 22:30 243 2 gusting 6 30.6
2019-Jul-15 22:01 115 0 gusting 7 31.1
2019-Jul-15 21:45 120 2 gusting 8 31.1
2019-Jul-15 21:30 201 1 gusting 7 31.1
2019-Jul-15 21:15 172 4 gusting 9 30.6
2019-Jul-15 21:01 092 4 gusting 9 30.6
2019-Jul-15 20:45 159 3 gusting 8 31.1
2019-Jul-15 20:30 149 4 gusting 9 30.6
2019-Jul-15 20:16 098 5 gusting 8 31.1
2019-Jul-15 20:00 117 4 gusting 9 31.1
2019-Jul-15 19:46 127 3 gusting 7 31.1
2019-Jul-15 19:30 127 4 gusting 12 31.7
2019-Jul-15 19:16 328 2 gusting 7 31.7
2019-Jul-15 19:00 149 3 gusting 7 31.7
2019-Jul-15 18:46 131 2 gusting 10 31.7
2019-Jul-15 18:31 134 3 gusting 11 31.7
2019-Jul-15 18:00 026 1 gusting 8 31.7
2019-Jul-15 17:45 125 4 gusting 10 31.1
2019-Jul-15 17:31 189 2 gusting 9 31.1
2019-Jul-15 17:15 079 3 gusting 10 30.6
2019-Jul-15 16:45 120 3 gusting 10 31.7
2019-Jul-15 16:30 103 3 gusting 10 31.7
2019-Jul-15 16:16 074 3 gusting 10 31.1
2019-Jul-15 16:00 136 3 gusting 11 30.6
2019-Jul-15 15:47 124 5 gusting 9 30.6
2019-Jul-15 15:30 138 2 gusting 8 30.6
2019-Jul-15 15:16 188 2 gusting 10 30.6
2019-Jul-15 15:00 096 2 gusting 8 30.0
2019-Jul-15 14:46 137 2 gusting 8 30.0
2019-Jul-15 14:30 240 3 gusting 8 30.0
2019-Jul-15 14:01 140 1 gusting 7 29.4
2019-Jul-15 13:45 139 2 gusting 6 28.9
2019-Jul-15 13:31 142 1 gusting 7 28.3
2019-Jul-15 13:15 152 2 gusting 7 28.3
2019-Jul-15 13:01 155 27.8
2019-Jul-15 12:45 134 0 gusting 5 27.8
2019-Jul-15 12:31 135 0 gusting 5 27.2
2019-Jul-15 12:15 142 1 gusting 6 27.2
2019-Jul-15 12:01 117 0 gusting 6 26.7
2019-Jul-15 11:45 189 26.7
2019-Jul-15 11:16 109 0 gusting 3 26.1
2019-Jul-15 11:00 203 0 gusting 2 26.1
2019-Jul-15 10:47 163 26.1
2019-Jul-15 10:30 123 25.6
2019-Jul-15 10:01 183 25.6
2019-Jul-15 09:45 183 26.1
2019-Jul-15 09:31 149 0 gusting 1 26.1
2019-Jul-15 09:15 142 26.1
2019-Jul-15 08:45 155 26.1
2019-Jul-15 08:30 132 0 gusting 2 26.7
2019-Jul-15 08:16 140 0 gusting 1 26.7
2019-Jul-15 08:00 120 26.7
2019-Jul-15 07:46 149 26.7
2019-Jul-15 07:30 120 26.1
2019-Jul-15 07:01 150 26.1
2019-Jul-15 06:31 160 0 gusting 2 26.1
2019-Jul-15 06:15 139 26.7
2019-Jul-15 06:02 127 26.1
2019-Jul-15 05:46 112 26.1
2019-Jul-15 05:15 198 26.7
2019-Jul-15 05:00 101 0 gusting 2 26.7
2019-Jul-15 04:46 123 0 gusting 2 26.7
2019-Jul-15 04:30 155 26.7
2019-Jul-15 04:16 141 27.2
2019-Jul-15 04:01 131 27.2
2019-Jul-15 03:31 113 27.8
2019-Jul-15 03:15 161 1 gusting 4 27.2
2019-Jul-15 03:01 129 27.2
2019-Jul-15 02:45 129 27.2
2019-Jul-15 02:31 132 27.2
2019-Jul-15 02:16 117 0 gusting 4 27.2
2019-Jul-15 01:46 120 27.2
2019-Jul-15 01:30 120 0 gusting 3 27.2
2019-Jul-15 01:17 114 1 gusting 4 27.2
2019-Jul-15 01:00 131 27.2
2019-Jul-15 00:30 152 27.2
2019-Jul-15 00:01 132 27.8
2019-Jul-14 23:31 129 0 gusting 3 27.8
2019-Jul-14 23:15 122 27.2
2019-Jul-14 23:02 217 26.7
2019-Jul-14 22:45 146 26.7
2019-Jul-14 22:16 146 26.7
2019-Jul-14 22:00 122 0 gusting 6 26.7
2019-Jul-14 21:46 113 1 gusting 5 27.2
2019-Jul-14 21:30 120 0 gusting 3 27.2
2019-Jul-14 21:17 145 1 gusting 10 27.8
2019-Jul-14 21:00 112 4 gusting 11 29.4
2019-Jul-14 20:31 170 3 gusting 10 29.4
2019-Jul-14 20:15 115 5 gusting 13 29.4
2019-Jul-14 20:01 111 6 gusting 11 29.4
2019-Jul-14 19:45 170 3 gusting 13 30.0
2019-Jul-14 19:31 123 3 gusting 13 30.0
2019-Jul-14 19:15 119 5 gusting 13 30.0
2019-Jul-14 19:02 096 6 gusting 11 30.0
2019-Jul-14 18:45 136 4 gusting 12 30.0
2019-Jul-14 18:16 155 4 gusting 11 30.6
2019-Jul-14 18:00 211 5 gusting 11 30.0
2019-Jul-14 17:46 150 7 gusting 14 30.0
2019-Jul-14 17:30 131 4 gusting 10 30.0
2019-Jul-14 17:16 129 3 gusting 10 30.0
2019-Jul-14 17:00 127 4 gusting 11 30.0
2019-Jul-14 16:46 120 5 gusting 11 30.0
2019-Jul-14 16:31 142 8 gusting 14 29.4
2019-Jul-14 16:01 162 6 gusting 13 30.0
2019-Jul-14 15:45 096 2 gusting 6 29.4
2019-Jul-14 15:31 158 5 gusting 11 29.4
2019-Jul-14 15:15 141 6 gusting 13 29.4
2019-Jul-14 15:02 137 3 gusting 11 29.4
2019-Jul-14 14:45 117 4 gusting 13 29.4
2019-Jul-14 14:16 153 5 gusting 13 29.4
2019-Jul-14 13:45 131 4 gusting 9 29.4
2019-Jul-14 13:16 204 2 gusting 6 28.3
2019-Jul-14 13:00 124 2 gusting 5 27.8
2019-Jul-14 12:46 124 2 gusting 6 27.8
2019-Jul-14 12:30 142 1 gusting 4 27.2
2019-Jul-14 12:01 142 1 gusting 5 26.7
2019-Jul-14 11:31 141 0 gusting 3 26.1
2019-Jul-14 11:15 122 26.1
2019-Jul-14 11:01 110 1 gusting 5 26.1
2019-Jul-14 10:45 018 25.0
2019-Jul-14 10:16 354 25.0
2019-Jul-14 10:00 198 25.0
2019-Jul-14 09:47 201 25.6
2019-Jul-14 09:30 114 2 gusting 6 25.6
2019-Jul-14 09:16 148 0 gusting 2 27.8
2019-Jul-14 09:00 139 2 gusting 6 27.8
2019-Jul-14 08:46 124 5 gusting 8 27.8
2019-Jul-14 08:30 124 3 gusting 6 27.8
2019-Jul-14 08:01 142 2 gusting 6 27.8
2019-Jul-14 07:31 124 3 gusting 8 27.8
2019-Jul-14 07:01 142 3 gusting 6 27.8
2019-Jul-14 06:45 129 4 gusting 6 27.8
2019-Jul-14 06:32 150 3 gusting 8 27.8
2019-Jul-14 06:15 129 3 gusting 7 27.8
2019-Jul-14 06:01 169 2 gusting 7 27.8
2019-Jul-14 05:45 142 4 gusting 7 27.8
2019-Jul-14 05:15 108 0 gusting 4 27.8
2019-Jul-14 05:00 115 2 gusting 7 27.8
2019-Jul-14 04:47 105 2 gusting 6 27.8
2019-Jul-14 04:30 149 2 gusting 8 27.8
2019-Jul-14 04:16 149 3 gusting 10 27.8
2019-Jul-14 04:00 151 2 gusting 7 27.8
2019-Jul-14 03:46 114 4 gusting 10 27.8
2019-Jul-14 03:30 132 3 gusting 7 27.8
2019-Jul-14 03:01 120 2 gusting 6 27.8
2019-Jul-14 02:31 120 2 gusting 6 27.8
2019-Jul-14 02:15 110 0 gusting 6 27.8
2019-Jul-14 02:01 179 1 gusting 5 27.8
2019-Jul-14 01:45 145 0 gusting 5 27.8
2019-Jul-14 01:15 110 0 gusting 6 28.3
2019-Jul-14 01:00 098 3 gusting 9 28.3
2019-Jul-14 00:45 142 0 gusting 6 28.3
2019-Jul-14 00:31 127 2 gusting 5 28.3
2019-Jul-14 00:16 115 2 gusting 8 28.9
2019-Jul-14 00:00 117 0 gusting 6 28.9